Tracking 35055 objects as of 18-Aug-2026
HD Live streaming from Space Station
objects crossing your sky now

COSMOS 860 DEB (ANTENNA)


COSMOS 860 DEB (ANTENNA) is no longer on orbit


NORAD ID: 9538
Int'l Code: 1976-103D
Launch date: October 17, 1976
Source: Commonwealth of Independent States (former USSR) (CIS)
Launch site: TYURATAM MISSILE AND SPACE COMPLEX (TTMTR)
Decay date: 1976-11-15

Note: This is SATELLITE DEBRIS
Your satellite tracking list
Your tracking list is empty




NASA's NSSDC Master Catalog

Two Line Element Set (TLE):
1 09538U 76103  D 76319.80546878  .05129042 +00000-0 +00000-0 0  9997
2 09538 065.0234 230.1643 0000000 129.8357 230.2775 16.28071022004516
Source of the keplerian elements: AFSPC